,,,PA_Meas_PMT16A,,PR_Meas_QMR101_102,,RH_Meas_QMH101,,SR_Meas_QMS101,,TA_Meas_QMH101,,GenWind,,GenWind,
date,time,status,PA,status,PR,status,RH,status,SR,status,TA,status,DirAvg,status,SpdAvg,
2010-04-27, 00:00:04,VALID,1002.92,VALID,0,VALID,91.7157,VALID,0,VALID,22.9598,VALID,90,VALID,0,
2010-04-27, 00:01:04,VALID,1002.91,VALID,0,VALID,91.792,VALID,0,VALID,22.9793,VALID,90,VALID,0,
2010-04-27, 00:02:04,VALID,1002.9,VALID,0,VALID,91.8454,VALID,0,VALID,22.9793,VALID,90,VALID,0,
2010-04-27, 00:03:04,VALID,1002.85,VALID,0,VALID,91.9827,VALID,0,VALID,22.9988,VALID,90,VALID,0,
2010-04-27, 00:04:04,VALID,1002.86,VALID,0,VALID,92.0361,VALID,0,VALID,23.0183,VALID,90,VALID,0,
2010-04-27, 00:05:04,VALID,1002.82,VALID,0,VALID,91.9827,VALID,0,VALID,23.0378,VALID,90,VALID,0,
2010-04-27, 00:06:04,VALID,1002.82,VALID,0,VALID,91.853,VALID,0,VALID,23.0573,VALID,90,VALID,0,
2010-04-27, 00:07:04,VALID,1002.81,VALID,0,VALID,91.7614,VALID,0,VALID,23.0769,VALID,90,VALID,0,
2010-04-27, 00:08:04,VALID,1002.8,VALID,0,VALID,91.6623,VALID,0,VALID,23.0769,VALID,90,VALID,0,
2010-04-27, 00:09:04,VALID,1002.78,VALID,0,VALID,91.6165,VALID,0,VALID,23.0769,VALID,90,VALID,0,
2010-04-27, 00:10:04,VALID,1002.75,VALID,0,VALID,91.6317,VALID,0,VALID,23.0964,VALID,90,VALID,0,
2010-04-27, 00:11:04,VALID,1002.76,VALID,0,VALID,91.6394,VALID,0,VALID,23.0573,VALID,90,VALID,0,
2010-04-27, 00:12:04,VALID,1002.76,VALID,0,VALID,91.6088,VALID,0,VALID,23.0573,VALID,90,VALID,0,
2010-04-27, 00:13:04,VALID,1002.75,VALID,0,VALID,91.7233,VALID,0,VALID,23.0769,VALID,90,VALID,0,
2010-04-27, 00:14:04,VALID,1002.73,VALID,0,VALID,91.7843,VALID,0,VALID,23.0769,VALID,17,VALID,0,
2010-04-27, 00:15:04,VALID,1002.74,VALID,0,VALID,91.708,VALID,0,VALID,23.0964,VALID,351,VALID,0,
2010-04-27, 00:16:04,VALID,1002.72,VALID,0,VALID,91.6546,VALID,0,VALID,23.0964,VALID,351,VALID,0,
2010-04-27, 00:17:04,VALID,1002.71,VALID,0,VALID,91.6241,VALID,0,VALID,23.0769,VALID,351,VALID,0,
2010-04-27, 00:18:04,VALID,1002.69,VALID,0,VALID,91.5783,VALID,0,VALID,23.0964,VALID,351,VALID,0,
2010-04-27, 00:19:04,VALID,1002.66,VALID,0,VALID,91.6165,VALID,0,VALID,23.0964,VALID,351,VALID,0,
2010-04-27, 00:20:04,VALID,1002.68,VALID,0,VALID,91.6165,VALID,0,VALID,23.0769,VALID,351,VALID,0,
2010-04-27, 00:21:04,VALID,1002.67,VALID,0,VALID,91.5173,VALID,0,VALID,23.0769,VALID,63,VALID,0,
2010-04-27, 00:22:04,VALID,1002.63,VALID,0,VALID,91.4944,VALID,0,VALID,23.0378,VALID,79,VALID,0,
2010-04-27, 00:23:04,VALID,1002.66,VALID,0,VALID,91.5249,VALID,0,VALID,23.0378,VALID,79,VALID,0,
2010-04-27, 00:24:04,VALID,1002.67,VALID,0,VALID,91.4715,VALID,0,VALID,23.0378,VALID,79,VALID,0,
2010-04-27, 00:25:04,VALID,1002.67,VALID,0,VALID,91.4563,VALID,0,VALID,23.0378,VALID,79,VALID,0,
2010-04-27, 00:26:04,VALID,1002.67,VALID,0,VALID,91.3723,VALID,0,VALID,23.0183,VALID,67,VALID,0,
2010-04-27, 00:27:04,VALID,1002.66,VALID,0,VALID,91.3571,VALID,0,VALID,23.0201,VALID,32,VALID,0,
2010-04-27, 00:28:04,VALID,1002.65,VALID,0,VALID,91.38,VALID,0,VALID,23.0183,VALID,32,VALID,0,
2010-04-27, 00:29:04,VALID,1002.67,VALID,0,VALID,91.4639,VALID,0,VALID,22.9988,VALID,32,VALID,0,
2010-04-27, 00:30:04,VALID,1002.62,VALID,0,VALID,91.5936,VALID,0,VALID,22.9793,VALID,32,VALID,0,
2010-04-27, 00:31:04,VALID,1002.6,VALID,0,VALID,91.7233,VALID,0,VALID,22.9793,VALID,32,VALID,0,
2010-04-27, 00:32:04,VALID,1002.56,VALID,0,VALID,91.8759,VALID,0,VALID,22.9988,VALID,32,VALID,0,
2010-04-27, 00:33:04,VALID,1002.59,VALID,0,VALID,91.9903,VALID,0,VALID,22.9988,VALID,33,VALID,0,
2010-04-27, 00:34:04,VALID,1002.53,VALID,0,VALID,92.0819,VALID,0,VALID,23.0183,VALID,33,VALID,0,
2010-04-27, 00:35:04,VALID,1002.52,VALID,0,VALID,92.1582,VALID,0,VALID,23.0378,VALID,33,VALID,0,
2010-04-27, 00:36:04,VALID,1002.49,VALID,0,VALID,92.1734,VALID,0,VALID,23.0378,VALID,33,VALID,0,
2010-04-27, 00:37:04,VALID,1002.49,VALID,0,VALID,92.2192,VALID,0,VALID,23.0573,VALID,33,VALID,0,
2010-04-27, 00:38:04,VALID,1002.46,VALID,0,VALID,92.2421,VALID,0,VALID,23.0573,VALID,35,VALID,0,
2010-04-27, 00:39:04,VALID,1002.47,VALID,0,VALID,92.2268,VALID,0,VALID,23.0573,VALID,36,VALID,0,
2010-04-27, 00:40:04,VALID,1002.44,VALID,0,VALID,92.204,VALID,0,VALID,23.0769,VALID,36,VALID,0.730078,
2010-04-27, 00:41:04,VALID,1002.43,VALID,0,VALID,92.1811,VALID,0,VALID,23.0573,VALID,38,VALID,0.607031,
2010-04-27, 00:42:04,VALID,1002.41,VALID,0,VALID,92.1582,VALID,0,VALID,23.0573,VALID,38,VALID,0.308984,
2010-04-27, 00:43:04,VALID,1002.41,VALID,0,VALID,92.1506,VALID,0.112286,VALID,23.0573,VALID,40,VALID,0.435156,
2010-04-27, 00:44:04,VALID,1002.4,VALID,0,VALID,92.1429,VALID,0,VALID,23.0769,VALID,40,VALID,0,
2010-04-27, 00:45:04,VALID,1002.34,VALID,0,VALID,92.0819,VALID,0,VALID,23.0573,VALID,40,VALID,0,
2010-04-27, 00:46:04,VALID,1002.34,VALID,0,VALID,92.059,VALID,0,VALID,23.0573,VALID,40,VALID,0,
2010-04-27, 00:47:04,VALID,1002.32,VALID,0,VALID,92.0285,VALID,0,VALID,23.0573,VALID,40,VALID,0,
2010-04-27, 00:48:04,VALID,1002.32,VALID,0,VALID,92.0132,VALID,0,VALID,23.0573,VALID,40,VALID,0,
2010-04-27, 00:49:04,VALID,1002.28,VALID,0,VALID,91.998,VALID,0,VALID,23.0378,VALID,40,VALID,0,
2010-04-27, 00:50:04,VALID,1002.28,VALID,0,VALID,92.0056,VALID,0,VALID,23.0573,VALID,40,VALID,0,
2010-04-27, 00:51:04,VALID,1002.26,VALID,0,VALID,91.9598,VALID,0,VALID,23.0573,VALID,107,VALID,0,
2010-04-27, 00:52:04,VALID,1002.26,VALID,0,VALID,91.9674,VALID,0,VALID,23.0769,VALID,123,VALID,0,
2010-04-27, 00:53:04,VALID,1002.26,VALID,0,VALID,91.8072,VALID,0,VALID,23.0769,VALID,124,VALID,0,
2010-04-27, 00:54:04,VALID,1002.26,VALID,0,VALID,91.7004,VALID,0,VALID,23.0751,VALID,127,VALID,0,
2010-04-27, 00:55:04,VALID,1002.25,VALID,0,VALID,91.6775,VALID,0,VALID,23.1354,VALID,139,VALID,0,
2010-04-27, 00:56:04,VALID,1002.22,VALID,0,VALID,91.5478,VALID,0,VALID,23.1549,VALID,156,VALID,0.615234,
2010-04-27, 00:57:04,VALID,1002.22,VALID,0,VALID,91.4257,VALID,0,VALID,23.1744,VALID,156,VALID,0.468359,
2010-04-27, 00:58:04,VALID,1002.19,VALID,0,VALID,91.3418,VALID,0,VALID,23.2134,VALID,153,VALID,0.240625,
2010-04-27, 00:59:04,VALID,1002.18,VALID,0,VALID,91.3266,VALID,0,VALID,23.2524,VALID,153,VALID,0.629687,
2010-04-27, 01:00:04,VALID,1002.18,VALID,0,VALID,91.2503,VALID,0,VALID,23.2915,VALID,153,VALID,0.580469,
2010-04-27, 01:01:04,VALID,1002.17,VALID,0,VALID,91.3266,VALID,0,VALID,23.3305,VALID,156,VALID,0.890234,
2010-04-27, 01:02:04,VALID,1002.14,VALID,0,VALID,91.1968,VALID,0,VALID,23.3695,VALID,157,VALID,1.0168,
2010-04-27, 01:03:04,VALID,1002.14,VALID,0,VALID,90.9298,VALID,0,VALID,23.389,VALID,157,VALID,0.630469,
2010-04-27, 01:04:04,VALID,1002.18,VALID,0,VALID,90.7696,VALID,0,VALID,23.389,VALID,157,VALID,0.439844,
2010-04-27, 01:05:04,VALID,1002.17,VALID,0,VALID,90.4797,VALID,0,VALID,23.3695,VALID,157,VALID,0.675781,
2010-04-27, 01:06:04,VALID,1002.15,VALID,0,VALID,90.3728,VALID,0,VALID,23.389,VALID,157,VALID,0.505859,
2010-04-27, 01:07:04,VALID,1002.15,VALID,0,VALID,90.3042,VALID,0,VALID,23.4298,VALID,157,VALID,0.234766,
2010-04-27, 01:08:04,VALID,1002.15,VALID,0,VALID,90.2279,VALID,0,VALID,23.4085,VALID,157,VALID,0.687109,
2010-04-27, 01:09:04,VALID,1002.14,VALID,0,VALID,90.1668,VALID,0,VALID,23.4085,VALID,157,VALID,0.227734,
2010-04-27, 01:10:04,VALID,1002.12,VALID,0,VALID,90.0982,VALID,0,VALID,23.428,VALID,157,VALID,0,
2010-04-27, 01:11:04,VALID,1002.09,VALID,0,VALID,90.0448,VALID,0,VALID,23.4475,VALID,157,VALID,0,
2010-04-27, 01:12:04,VALID,1002.07,VALID,0,VALID,89.9609,VALID,0,VALID,23.4475,VALID,157,VALID,0,
2010-04-27, 01:13:04,VALID,1002.04,VALID,0,VALID,89.9609,VALID,0,VALID,23.4475,VALID,157,VALID,0,
2010-04-27, 01:14:04,VALID,1002.02,VALID,0,VALID,89.9532,VALID,0,VALID,23.4475,VALID,157,VALID,0,
2010-04-27, 01:15:04,VALID,1002,VALID,0,VALID,90.0829,VALID,0,VALID,23.4475,VALID,157,VALID,0,
2010-04-27, 01:16:04,VALID,1001.99,VALID,0,VALID,90.1821,VALID,0,VALID,23.4475,VALID,157,VALID,0,
2010-04-27, 01:17:04,VALID,1001.99,VALID,0,VALID,90.1745,VALID,0,VALID,23.4475,VALID,157,VALID,0,
2010-04-27, 01:18:04,VALID,1001.97,VALID,0,VALID,90.1745,VALID,0,VALID,23.4475,VALID,157,VALID,0,
2010-04-27, 01:19:04,VALID,1001.99,VALID,0,VALID,90.144,VALID,0,VALID,23.4671,VALID,157,VALID,0,
2010-04-27, 01:20:04,VALID,1001.98,VALID,0,VALID,90.2737,VALID,0,VALID,23.4671,VALID,157,VALID,0,
2010-04-27, 01:21:04,VALID,1002.01,VALID,0,VALID,90.35,VALID,0,VALID,23.4866,VALID,157,VALID,0,
2010-04-27, 01:22:04,VALID,1002,VALID,0,VALID,90.4186,VALID,0,VALID,23.4866,VALID,157,VALID,0,
2010-04-27, 01:23:04,VALID,1002.01,VALID,0,VALID,90.472,VALID,0,VALID,23.4866,VALID,154,VALID,0.0195313,
2010-04-27, 01:24:04,VALID,1001.96,VALID,0,VALID,90.5178,VALID,0,VALID,23.4866,VALID,102,VALID,0.533203,
2010-04-27, 01:25:04,VALID,1001.95,VALID,0,VALID,90.5483,VALID,0,VALID,23.4671,VALID,71,VALID,0.481641,
2010-04-27, 01:26:04,VALID,1001.98,VALID,0,VALID,90.5636,VALID,0,VALID,23.4671,VALID,67,VALID,0.615234,
2010-04-27, 01:27:04,VALID,1001.95,VALID,0,VALID,90.5941,VALID,0,VALID,23.4475,VALID,67,VALID,0.632422,
2010-04-27, 01:28:04,VALID,1001.92,VALID,0,VALID,90.6246,VALID,0,VALID,23.428,VALID,54,VALID,0.844531,
2010-04-27, 01:29:04,VALID,1001.93,VALID,0,VALID,90.678,VALID,0,VALID,23.428,VALID,43,VALID,0.814844,
2010-04-27, 01:30:04,VALID,1001.9,VALID,0,VALID,90.7162,VALID,0,VALID,23.4085,VALID,40,VALID,0.495703,
2010-04-27, 01:31:04,VALID,1001.9,VALID,0,VALID,90.762,VALID,0,VALID,23.389,VALID,40,VALID,0.185937,
2010-04-27, 01:32:04,VALID,1001.89,VALID,0,VALID,90.8154,VALID,0,VALID,23.3695,VALID,37,VALID,0.0816406,
2010-04-27, 01:33:04,VALID,1001.89,VALID,0,VALID,90.8688,VALID,0,VALID,23.3287,VALID,37,VALID,0,
2010-04-27, 01:34:04,VALID,1001.87,VALID,0,VALID,90.968,VALID,0,VALID,23.35,VALID,37,VALID,0,
2010-04-27, 01:35:04,VALID,1001.84,VALID,0,VALID,91.0519,VALID,0,VALID,23.3305,VALID,37,VALID,0,
2010-04-27, 01:36:04,VALID,1001.82,VALID,0,VALID,91.1892,VALID,0,VALID,23.3305,VALID,37,VALID,0,
2010-04-27, 01:37:04,VALID,1001.81,VALID,0,VALID,91.2731,VALID,0,VALID,23.3305,VALID,37,VALID,0,
2010-04-27, 01:38:04,VALID,1001.78,VALID,0,VALID,91.3418,VALID,0,VALID,23.311,VALID,37,VALID,0,
2010-04-27, 01:39:04,VALID,1001.78,VALID,0,VALID,91.3952,VALID,0,VALID,23.311,VALID,37,VALID,0,
2010-04-27, 01:40:04,VALID,1001.79,VALID,0,VALID,91.4791,VALID,0,VALID,23.311,VALID,37,VALID,0,
2010-04-27, 01:41:04,VALID,1001.77,VALID,0,VALID,91.4868,VALID,0,VALID,23.2915,VALID,37,VALID,0,
2010-04-27, 01:42:04,VALID,1001.78,VALID,0,VALID,91.5097,VALID,0,VALID,23.2719,VALID,37,VALID,0,
2010-04-27, 01:43:04,VALID,1001.76,VALID,0,VALID,91.5249,VALID,0,VALID,23.2719,VALID,37,VALID,0,
2010-04-27, 01:44:04,VALID,1001.75,VALID,0,VALID,91.5402,VALID,0,VALID,23.2719,VALID,37,VALID,0,
2010-04-27, 01:45:04,VALID,1001.73,VALID,0,VALID,91.5326,VALID,0,VALID,23.2542,VALID,37,VALID,0,
2010-04-27, 01:46:04,VALID,1001.69,VALID,0,VALID,91.5249,VALID,0,VALID,23.2329,VALID,37,VALID,0,
2010-04-27, 01:47:04,VALID,1001.69,VALID,0,VALID,91.5707,VALID,0,VALID,23.2117,VALID,37,VALID,0,
2010-04-27, 01:48:04,VALID,1001.7,VALID,0,VALID,91.6546,VALID,0,VALID,23.2329,VALID,37,VALID,0,
2010-04-27, 01:49:04,VALID,1001.71,VALID,0,VALID,91.7004,VALID,0,VALID,23.2329,VALID,37,VALID,0,
2010-04-27, 01:50:04,VALID,1001.71,VALID,0,VALID,91.7309,VALID,0,VALID,23.2134,VALID,37,VALID,0,
2010-04-27, 01:51:04,VALID,1001.69,VALID,0,VALID,91.853,VALID,0,VALID,23.2347,VALID,37,VALID,0,
2010-04-27, 01:52:04,VALID,1001.7,VALID,0,VALID,91.9293,VALID,0,VALID,23.2134,VALID,37,VALID,0,
2010-04-27, 01:53:04,VALID,1001.68,VALID,0,VALID,91.9064,VALID,0,VALID,23.2347,VALID,37,VALID,0,
2010-04-27, 01:54:04,VALID,1001.67,VALID,0,VALID,91.914,VALID,0,VALID,23.2134,VALID,37,VALID,0,
2010-04-27, 01:55:04,VALID,1001.66,VALID,0,VALID,91.8988,VALID,0,VALID,23.2134,VALID,37,VALID,0,
2010-04-27, 01:56:04,VALID,1001.64,VALID,0,VALID,91.8683,VALID,0,VALID,23.2542,VALID,37,VALID,0,
2010-04-27, 01:57:04,VALID,1001.66,VALID,0,VALID,91.7691,VALID,0,VALID,23.2719,VALID,37,VALID,0,
2010-04-27, 01:58:04,VALID,1001.62,VALID,0,VALID,91.6775,VALID,0,VALID,23.2915,VALID,37,VALID,0,
2010-04-27, 01:59:04,VALID,1001.63,VALID,0,VALID,91.5936,VALID,0,VALID,23.2915,VALID,37,VALID,0,
2010-04-27, 02:00:04,VALID,1001.63,VALID,0,VALID,91.5097,VALID,0,VALID,23.2915,VALID,37,VALID,0,
2010-04-27, 02:01:04,VALID,1001.63,VALID,0,VALID,91.4105,VALID,0,VALID,23.311,VALID,37,VALID,0,
2010-04-27, 02:02:04,VALID,1001.63,VALID,0,VALID,91.3418,VALID,0,VALID,23.311,VALID,37,VALID,0,
2010-04-27, 02:03:04,VALID,1001.63,VALID,0,VALID,91.2884,VALID,0,VALID,23.311,VALID,37,VALID,0,
2010-04-27, 02:04:04,VALID,1001.62,VALID,0,VALID,91.3037,VALID,0,VALID,23.311,VALID,37,VALID,0,
2010-04-27, 02:05:04,VALID,1001.63,VALID,0,VALID,91.2274,VALID,0,VALID,23.2702,VALID,37,VALID,0,
2010-04-27, 02:06:04,VALID,1001.64,VALID,0,VALID,91.2121,VALID,0,VALID,23.2524,VALID,37,VALID,0,
2010-04-27, 02:07:04,VALID,1001.64,VALID,0,VALID,91.3418,VALID,0,VALID,23.1921,VALID,37,VALID,0,
2010-04-27, 02:08:04,VALID,1001.65,VALID,0,VALID,91.5326,VALID,0,VALID,23.2134,VALID,37,VALID,0,
2010-04-27, 02:09:04,VALID,1001.63,VALID,0,VALID,91.3952,VALID,0,VALID,23.1531,VALID,37,VALID,0,
2010-04-27, 02:10:04,VALID,1001.6,VALID,0,VALID,91.5173,VALID,0,VALID,23.1159,VALID,37,VALID,0,
2010-04-27, 02:11:04,VALID,1001.59,VALID,0,VALID,91.5097,VALID,0,VALID,23.0769,VALID,37,VALID,0.371875,
2010-04-27, 02:12:04,VALID,1001.6,VALID,0,VALID,91.4563,VALID,0,VALID,23.0166,VALID,37,VALID,0.0914062,
2010-04-27, 02:13:04,VALID,1001.58,VALID,0,VALID,91.6088,VALID,0,VALID,23.0183,VALID,37,VALID,0,
2010-04-27, 02:14:04,VALID,1001.6,VALID,0,VALID,91.7385,VALID,0,VALID,23.0166,VALID,37,VALID,0,
2010-04-27, 02:15:04,VALID,1001.6,VALID,0,VALID,91.708,VALID,0,VALID,23.0183,VALID,37,VALID,0,
2010-04-27, 02:16:04,VALID,1001.59,VALID,0,VALID,91.7538,VALID,0,VALID,23.0183,VALID,37,VALID,0,
2010-04-27, 02:17:04,VALID,1001.59,VALID,0,VALID,91.914,VALID,0,VALID,23.0166,VALID,37,VALID,0,
2010-04-27, 02:18:04,VALID,1001.62,VALID,0,VALID,91.9369,VALID,0,VALID,23.0361,VALID,37,VALID,0,
2010-04-27, 02:19:04,VALID,1001.63,VALID,0,VALID,91.8606,VALID,0,VALID,23.0591,VALID,37,VALID,0.598047,
2010-04-27, 02:20:04,VALID,1001.65,VALID,0,VALID,91.792,VALID,0,VALID,23.0166,VALID,37,VALID,0.789844,
2010-04-27, 02:21:04,VALID,1001.68,VALID,0,VALID,91.7691,VALID,0,VALID,23.0378,VALID,37,VALID,0.730078,
2010-04-27, 02:22:04,VALID,1001.67,VALID,0,VALID,91.7538,VALID,0,VALID,23.0166,VALID,37,VALID,0.663281,
2010-04-27, 02:23:04,VALID,1001.68,VALID,0,VALID,91.8759,VALID,0,VALID,23.0166,VALID,37,VALID,0.855859,
2010-04-27, 02:24:04,VALID,1001.69,VALID,0,VALID,91.9445,VALID,0,VALID,23.0573,VALID,37,VALID,1.0543,
2010-04-27, 02:25:04,VALID,1001.67,VALID,0,VALID,91.853,VALID,0,VALID,23.0361,VALID,39,VALID,1.0793,
2010-04-27, 02:26:04,VALID,1001.67,VALID,0,VALID,91.7538,VALID,0,VALID,23.0166,VALID,42,VALID,0.908594,
2010-04-27, 02:27:04,VALID,1001.7,VALID,0,VALID,91.8225,VALID,0,VALID,23.0183,VALID,44,VALID,0.814453,
2010-04-27, 02:28:04,VALID,1001.7,VALID,0,VALID,91.8148,VALID,0,VALID,22.9971,VALID,45,VALID,0.752734,
2010-04-27, 02:29:04,VALID,1001.68,VALID,0,VALID,91.792,VALID,0,VALID,22.9988,VALID,45,VALID,0.676172,
2010-04-27, 02:30:04,VALID,1001.71,VALID,0,VALID,91.7157,VALID,0,VALID,22.9581,VALID,45,VALID,0.380469,
2010-04-27, 02:31:04,VALID,1001.69,VALID,0,VALID,91.6851,VALID,0,VALID,22.9598,VALID,52,VALID,0.595312,
2010-04-27, 02:32:04,VALID,1001.69,VALID,0,VALID,91.6623,VALID,0,VALID,22.9403,VALID,53,VALID,0.614453,
2010-04-27, 02:33:04,VALID,1001.69,VALID,0,VALID,91.6165,VALID,0,VALID,22.9013,VALID,53,VALID,0.420312,
2010-04-27, 02:34:04,VALID,1001.7,VALID,0,VALID,91.7309,VALID,0,VALID,22.8605,VALID,53,VALID,0.339063,
2010-04-27, 02:35:04,VALID,1001.68,VALID,0,VALID,91.8072,VALID,0,VALID,22.8818,VALID,53,VALID,0.367969,
2010-04-27, 02:36:04,VALID,1001.65,VALID,0,VALID,91.9064,VALID,0,VALID,22.8605,VALID,53,VALID,0.344141,
2010-04-27, 02:37:04,VALID,1001.67,VALID,0,VALID,92.0666,VALID,0,VALID,22.9013,VALID,53,VALID,0.364844,
2010-04-27, 02:38:04,VALID,1001.65,VALID,0,VALID,92.1429,VALID,0,VALID,22.88,VALID,53,VALID,0.380078,
2010-04-27, 02:39:04,VALID,1001.63,VALID,0,VALID,92.1963,VALID,0,VALID,22.9208,VALID,53,VALID,0.232812,
2010-04-27, 02:40:04,VALID,1001.66,VALID,0,VALID,92.1506,VALID,0,VALID,22.9208,VALID,53,VALID,0.2875,
2010-04-27, 02:41:04,VALID,1001.63,VALID,0,VALID,92.2116,VALID,0,VALID,22.9208,VALID,53,VALID,0.319141,
2010-04-27, 02:42:04,VALID,1001.69,VALID,0,VALID,92.2268,VALID,0,VALID,22.9403,VALID,53,VALID,0.129297,
2010-04-27, 02:43:04,VALID,1001.64,VALID,0,VALID,92.12,VALID,0,VALID,22.8995,VALID,53,VALID,0,
2010-04-27, 02:44:04,VALID,1001.63,VALID,0,VALID,91.9903,VALID,0,VALID,22.88,VALID,53,VALID,0,
2010-04-27, 02:45:04,VALID,1001.61,VALID,0,VALID,91.998,VALID,0,VALID,22.8605,VALID,53,VALID,0,
2010-04-27, 02:46:04,VALID,1001.59,VALID,0,VALID,92.0971,VALID,0,VALID,22.8818,VALID,53,VALID,0,
2010-04-27, 02:47:04,VALID,1001.6,VALID,0,VALID,92.1124,VALID,0,VALID,22.8605,VALID,53,VALID,0,
2010-04-27, 02:48:04,VALID,1001.61,VALID,0,VALID,92.1582,VALID,0,VALID,22.88,VALID,53,VALID,0,
2010-04-27, 02:49:04,VALID,1001.63,VALID,0,VALID,92.1887,VALID,0.112286,VALID,22.8605,VALID,53,VALID,0,
2010-04-27, 02:50:04,VALID,1001.64,VALID,0,VALID,92.1658,VALID,0,VALID,22.88,VALID,317,VALID,0.493359,
2010-04-27, 02:51:04,VALID,1001.66,VALID,0,VALID,92.2421,VALID,0,VALID,22.9013,VALID,295,VALID,0.448828,
2010-04-27, 02:52:04,VALID,1001.65,VALID,0,VALID,92.3566,VALID,0,VALID,22.9403,VALID,252,VALID,0.333203,
2010-04-27, 02:53:04,VALID,1001.66,VALID,0,VALID,92.3566,VALID,0,VALID,22.9385,VALID,252,VALID,0,
2010-04-27, 02:54:04,VALID,1001.65,VALID,0,VALID,92.3489,VALID,0,VALID,22.9793,VALID,248,VALID,0.205469,
2010-04-27, 02:55:04,VALID,1001.65,VALID,0,VALID,92.3566,VALID,0,VALID,23.0183,VALID,245,VALID,0.285547,
2010-04-27, 02:56:04,VALID,1001.65,VALID,0,VALID,92.3184,VALID,0,VALID,23.0183,VALID,245,VALID,0,
2010-04-27, 02:57:04,VALID,1001.64,VALID,0,VALID,92.265,VALID,0,VALID,23.0361,VALID,245,VALID,0,
2010-04-27, 02:58:04,VALID,1001.6,VALID,0,VALID,92.0514,VALID,0,VALID,23.0166,VALID,185,VALID,0.807031,
2010-04-27, 02:59:04,VALID,1001.6,VALID,0,VALID,91.0671,VALID,0,VALID,22.9776,VALID,156,VALID,0.909375,
2010-04-27, 03:00:04,VALID,1001.54,VALID,0,VALID,89.9151,VALID,0,VALID,23.0166,VALID,140,VALID,0.869922,
2010-04-27, 03:01:04,VALID,1001.52,VALID,0,VALID,89.4344,VALID,0.112286,VALID,23.0946,VALID,126,VALID,0.909766,
2010-04-27, 03:02:04,VALID,1001.46,VALID,0,VALID,89.2284,VALID,0,VALID,23.1354,VALID,125,VALID,0.873828,
2010-04-27, 03:03:04,VALID,1001.47,VALID,0,VALID,89.3123,VALID,0,VALID,23.1336,VALID,121,VALID,0.904297,
2010-04-27, 03:04:04,VALID,1001.41,VALID,0,VALID,89.6175,VALID,0,VALID,23.1336,VALID,119,VALID,0.658984,
2010-04-27, 03:05:04,VALID,1001.4,VALID,0,VALID,89.938,VALID,0,VALID,23.1141,VALID,119,VALID,0.599609,
2010-04-27, 03:06:04,VALID,1001.36,VALID,0,VALID,89.9761,VALID,0,VALID,23.1159,VALID,112,VALID,0.725781,
2010-04-27, 03:07:04,VALID,1001.37,VALID,0,VALID,90.0753,VALID,0.112286,VALID,23.0556,VALID,103,VALID,0.8375,
2010-04-27, 03:08:04,VALID,1001.34,VALID,0,VALID,90.2508,VALID,0,VALID,23.0573,VALID,103,VALID,0.536719,
2010-04-27, 03:09:04,VALID,1001.35,VALID,0,VALID,90.2431,VALID,0,VALID,23.0183,VALID,103,VALID,0.0121094,
2010-04-27, 03:10:04,VALID,1001.33,VALID,0,VALID,90.3957,VALID,0.112286,VALID,22.9776,VALID,84,VALID,0,
2010-04-27, 03:11:04,VALID,1001.35,VALID,0,VALID,90.2737,VALID,0,VALID,22.9403,VALID,84,VALID,0,
2010-04-27, 03:12:04,VALID,1001.33,VALID,0,VALID,90.1897,VALID,0,VALID,22.9013,VALID,83,VALID,0,
2010-04-27, 03:13:04,VALID,1001.32,VALID,0,VALID,90.0829,VALID,0,VALID,22.8605,VALID,61,VALID,0,
2010-04-27, 03:14:04,VALID,1001.29,VALID,0,VALID,89.8846,VALID,0,VALID,22.8605,VALID,46,VALID,0,
2010-04-27, 03:15:04,VALID,1001.25,VALID,0,VALID,89.6938,VALID,0,VALID,22.802,VALID,43,VALID,0,
2010-04-27, 03:16:04,VALID,1001.23,VALID,0,VALID,89.7243,VALID,0,VALID,22.8037,VALID,43,VALID,0,
2010-04-27, 03:17:04,VALID,1001.23,VALID,0,VALID,90.1211,VALID,0,VALID,22.763,VALID,46,VALID,1.38945,
2010-04-27, 03:18:04,VALID,1001.23,VALID,0,VALID,90.2279,VALID,0,VALID,22.7435,VALID,47,VALID,1.2293,
2010-04-27, 03:19:04,VALID,1001.21,VALID,0,VALID,90.4034,VALID,0,VALID,22.7452,VALID,51,VALID,1.19453,
2010-04-27, 03:20:04,VALID,1001.21,VALID,0,VALID,90.678,VALID,0,VALID,22.7452,VALID,53,VALID,1.28047,
2010-04-27, 03:21:04,VALID,1001.22,VALID,0,VALID,90.9222,VALID,0,VALID,22.7452,VALID,49,VALID,1.4,
2010-04-27, 03:22:04,VALID,1001.21,VALID,0,VALID,91.0214,VALID,0.112286,VALID,22.724,VALID,60,VALID,0.93125,
2010-04-27, 03:23:04,VALID,1001.17,VALID,0,VALID,91.1663,VALID,0.112286,VALID,22.7045,VALID,79,VALID,0.585547,
2010-04-27, 03:24:04,VALID,1001.2,VALID,0,VALID,91.3113,VALID,0,VALID,22.7062,VALID,88,VALID,0.433984,
2010-04-27, 03:25:04,VALID,1001.17,VALID,0,VALID,91.2579,VALID,0,VALID,22.646,VALID,89,VALID,0,
2010-04-27, 03:26:04,VALID,1001.12,VALID,0,VALID,91.3418,VALID,0,VALID,22.6477,VALID,84,VALID,0,
2010-04-27, 03:27:04,VALID,1001.13,VALID,0,VALID,91.4257,VALID,0.112286,VALID,22.6477,VALID,60,VALID,0,
2010-04-27, 03:28:04,VALID,1001.11,VALID,0,VALID,91.3647,VALID,0,VALID,22.6087,VALID,60,VALID,0,
2010-04-27, 03:29:04,VALID,1001.1,VALID,0,VALID,91.3723,VALID,0,VALID,22.5892,VALID,60,VALID,0,
2010-04-27, 03:30:04,VALID,1001.1,VALID,0,VALID,91.3342,VALID,0,VALID,22.5501,VALID,60,VALID,0,
2010-04-27, 03:31:04,VALID,1001.1,VALID,0,VALID,91.38,VALID,0,VALID,22.5111,VALID,60,VALID,0,
2010-04-27, 03:32:04,VALID,1001.12,VALID,0,VALID,91.4944,VALID,0,VALID,22.5111,VALID,60,VALID,0,
2010-04-27, 03:33:04,VALID,1001.12,VALID,0,VALID,91.6241,VALID,0,VALID,22.4916,VALID,60,VALID,0,
2010-04-27, 03:34:04,VALID,1001.13,VALID,0,VALID,91.708,VALID,0,VALID,22.4916,VALID,60,VALID,0,
2010-04-27, 03:35:04,VALID,1001.14,VALID,0,VALID,91.8835,VALID,0,VALID,22.4899,VALID,60,VALID,0,
2010-04-27, 03:36:04,VALID,1001.13,VALID,0,VALID,92.0209,VALID,0,VALID,22.5323,VALID,60,VALID,0,
2010-04-27, 03:37:04,VALID,1001.1,VALID,0,VALID,92.0666,VALID,0,VALID,22.5306,VALID,60,VALID,0,
2010-04-27, 03:38:04,VALID,1001.11,VALID,0,VALID,92.0209,VALID,0,VALID,22.5306,VALID,57,VALID,0,
2010-04-27, 03:39:04,VALID,1001.08,VALID,0,VALID,92.0743,VALID,0,VALID,22.5111,VALID,57,VALID,0,
2010-04-27, 03:40:04,VALID,1001.09,VALID,0,VALID,92.1658,VALID,0,VALID,22.5306,VALID,45,VALID,0,
2010-04-27, 03:41:04,VALID,1001.11,VALID,0,VALID,92.1963,VALID,0,VALID,22.5306,VALID,45,VALID,0,
2010-04-27, 03:42:04,VALID,1001.1,VALID,0,VALID,92.2345,VALID,0,VALID,22.5306,VALID,45,VALID,0,
2010-04-27, 03:43:04,VALID,1001.1,VALID,0,VALID,92.1353,VALID,0,VALID,22.5306,VALID,45,VALID,0,
2010-04-27, 03:44:04,VALID,1001.12,VALID,0,VALID,92.0056,VALID,0,VALID,22.4916,VALID,45,VALID,0,
2010-04-27, 03:45:04,VALID,1001.11,VALID,0,VALID,91.9445,VALID,0,VALID,22.4721,VALID,45,VALID,0,
2010-04-27, 03:46:04,VALID,1001.12,VALID,0,VALID,91.792,VALID,0,VALID,22.4526,VALID,45,VALID,0,
2010-04-27, 03:47:04,VALID,1001.11,VALID,0,VALID,91.8683,VALID,0,VALID,22.4331,VALID,45,VALID,0,
2010-04-27, 03:48:04,VALID,1001.12,VALID,0,VALID,92.0132,VALID,0,VALID,22.4526,VALID,45,VALID,0,
2010-04-27, 03:49:04,VALID,1001.08,VALID,0,VALID,91.8225,VALID,0.112286,VALID,22.4526,VALID,53,VALID,0,
2010-04-27, 03:50:04,VALID,1001.12,VALID,0,VALID,91.7462,VALID,0,VALID,22.4526,VALID,53,VALID,0,
2010-04-27, 03:51:04,VALID,1001.1,VALID,0,VALID,91.9751,VALID,0,VALID,22.4721,VALID,53,VALID,0,
2010-04-27, 03:52:04,VALID,1001.11,VALID,0,VALID,92.0514,VALID,0,VALID,22.4916,VALID,53,VALID,0,
2010-04-27, 03:53:04,VALID,1001.12,VALID,0,VALID,91.853,VALID,0,VALID,22.5306,VALID,53,VALID,0,
2010-04-27, 03:54:04,VALID,1001.14,VALID,0,VALID,91.7309,VALID,0,VALID,22.5111,VALID,53,VALID,0,
2010-04-27, 03:55:04,VALID,1001.17,VALID,0,VALID,91.6241,VALID,0.112286,VALID,22.4916,VALID,53,VALID,0,
2010-04-27, 03:56:04,VALID,1001.16,VALID,0,VALID,91.586,VALID,0,VALID,22.4526,VALID,53,VALID,0,